Time,TemperatureF,DewpointF,PressureIn,WindDirection,WindDirectionDegrees,WindSpeedMPH,WindSpeedGustMPH,Humidity,HourlyPrecipIn,Conditions,Clouds,dailyrainin,SoftwareType,DateUTC
2013-07-30 00:00:00,65.6,59.6,30.10,West,273,0.0,0.0,81,0.00,BKN,,0.00,WeatherDisplay:10.37,2013-07-30 04:00:00,
2013-07-30 00:05:00,65.6,59.6,30.11,West,273,0.0,1.0,81,0.00,BKN,,0.00,WeatherDisplay:10.37,2013-07-30 04:05:00,
2013-07-30 00:10:00,65.5,59.5,30.11,West,273,0.0,1.0,81,0.00,BKN,,0.00,WeatherDisplay:10.37,2013-07-30 04:10:00,
2013-07-30 00:20:00,65.4,59.8,30.11,West,273,0.0,1.0,82,0.00,BKN,,0.00,WeatherDisplay:10.37,2013-07-30 04:20:00,
2013-07-30 00:25:00,65.3,59.7,30.10,West,273,0.0,1.0,82,0.00,BKN,,0.00,WeatherDisplay:10.37,2013-07-30 04:25:00,
2013-07-30 00:30:00,65.2,59.6,30.10,West,273,0.0,1.0,82,0.00,BKN,,0.00,WeatherDisplay:10.37,2013-07-30 04:30:00,
2013-07-30 00:35:00,65.1,59.5,30.10,West,273,0.0,1.0,82,0.00,BKN,,0.00,WeatherDisplay:10.37,2013-07-30 04:35:00,
2013-07-30 00:40:00,65.0,59.4,30.10,West,273,1.0,2.0,82,0.00,BKN,,0.00,WeatherDisplay:10.37,2013-07-30 04:40:00,
2013-07-30 00:50:00,64.8,59.5,30.11,West,273,0.0,1.0,83,0.00,BKN,,0.00,WeatherDisplay:10.37,2013-07-30 04:50:00,
2013-07-30 01:00:00,64.7,59.4,30.11,West,273,1.0,2.0,83,0.00,BKN,,0.00,WeatherDisplay:10.37,2013-07-30 05:00:00,
2013-07-30 01:10:00,64.5,59.2,30.11,West,273,0.0,2.0,83,0.00,BKN,,0.00,WeatherDisplay:10.37,2013-07-30 05:10:00,
2013-07-30 01:20:00,64.2,58.9,30.12,West,273,0.0,1.0,83,0.00,BKN,,0.00,WeatherDisplay:10.37,2013-07-30 05:20:00,
2013-07-30 01:30:00,63.9,59.0,30.12,West,273,1.0,2.0,84,0.00,BKN,,0.00,WeatherDisplay:10.37,2013-07-30 05:30:00,
2013-07-30 01:40:00,63.7,58.8,30.12,West,273,0.0,2.0,84,0.00,BKN,,0.00,WeatherDisplay:10.37,2013-07-30 05:40:00,
2013-07-30 01:50:00,63.5,58.6,30.11,West,273,1.0,2.0,84,0.00,BKN,,0.00,WeatherDisplay:10.37,2013-07-30 05:50:00,
2013-07-30 02:00:00,63.3,58.7,30.11,West,273,1.0,2.0,85,0.00,BKN,,0.00,WeatherDisplay:10.37,2013-07-30 06:00:00,
2013-07-30 02:10:00,63.1,58.5,30.11,West,273,0.0,2.0,85,0.00,OVC,,0.00,WeatherDisplay:10.37,2013-07-30 06:10:00,
2013-07-30 02:20:00,62.9,58.3,30.11,West,273,0.0,2.0,85,0.00,OVC,,0.00,WeatherDisplay:10.37,2013-07-30 06:20:00,
2013-07-30 02:30:00,62.6,58.4,30.11,West,273,0.0,1.0,86,0.00,OVC,,0.00,WeatherDisplay:10.37,2013-07-30 06:30:00,
2013-07-30 02:40:00,62.3,58.1,30.11,West,273,0.0,1.0,86,0.00,OVC,,0.00,WeatherDisplay:10.37,2013-07-30 06:40:00,
2013-07-30 02:50:00,62.1,58.2,30.11,West,273,0.0,1.0,87,0.00,OVC,,0.00,WeatherDisplay:10.37,2013-07-30 06:50:00,
2013-07-30 03:00:00,61.8,57.9,30.12,West,273,1.0,2.0,87,0.00,OVC,,0.00,WeatherDisplay:10.37,2013-07-30 07:00:00,
2013-07-30 03:10:00,61.5,57.9,30.11,West,273,0.0,2.0,88,0.00,SCT,,0.00,WeatherDisplay:10.37,2013-07-30 07:10:00,
2013-07-30 03:20:00,61.2,57.6,30.12,West,273,0.0,1.0,88,0.00,SCT,,0.00,WeatherDisplay:10.37,2013-07-30 07:20:00,
2013-07-30 03:30:00,61.1,57.8,30.12,West,273,1.0,3.0,89,0.00,SCT,,0.00,WeatherDisplay:10.37,2013-07-30 07:30:00,
2013-07-30 03:40:00,61.1,57.8,30.12,West,273,1.0,3.0,89,0.00,SCT,,0.00,WeatherDisplay:10.37,2013-07-30 07:40:00,
2013-07-30 03:50:00,61.1,57.8,30.12,West,273,0.0,2.0,89,0.00,SCT,,0.00,WeatherDisplay:10.37,2013-07-30 07:50:00,
2013-07-30 04:00:00,60.9,57.7,30.12,West,273,0.0,2.0,89,0.00,SCT,,0.00,WeatherDisplay:10.37,2013-07-30 08:00:00,
2013-07-30 04:10:00,60.9,57.6,30.12,West,273,0.0,2.0,89,0.00,BKN,,0.00,WeatherDisplay:10.37,2013-07-30 08:10:00,
2013-07-30 04:20:00,60.7,57.4,30.12,West,273,1.0,2.0,89,0.00,BKN,,0.00,WeatherDisplay:10.37,2013-07-30 08:20:00,
2013-07-30 04:30:00,60.4,57.1,30.13,West,273,1.0,2.0,89,0.00,BKN,,0.00,WeatherDisplay:10.37,2013-07-30 08:30:00,
2013-07-30 04:40:00,60.1,56.8,30.13,West,273,1.0,2.0,89,0.00,BKN,,0.00,WeatherDisplay:10.37,2013-07-30 08:40:00,
2013-07-30 04:50:00,59.9,57.0,30.13,West,273,0.0,2.0,90,0.00,BKN,,0.00,WeatherDisplay:10.37,2013-07-30 08:50:00,
2013-07-30 05:00:00,59.8,56.9,30.13,West,273,0.0,2.0,90,0.00,BKN,,0.00,WeatherDisplay:10.37,2013-07-30 09:00:00,
2013-07-30 05:10:00,59.6,56.7,30.12,West,273,0.0,1.0,90,0.00,SCT,,0.00,WeatherDisplay:10.37,2013-07-30 09:10:00,
2013-07-30 05:20:00,59.5,56.9,30.12,West,273,0.0,1.0,91,0.00,SCT,,0.00,WeatherDisplay:10.37,2013-07-30 09:20:00,
2013-07-30 05:30:00,59.4,56.7,30.13,West,273,0.0,1.0,91,0.00,SCT,,0.00,WeatherDisplay:10.37,2013-07-30 09:30:00,
2013-07-30 05:40:00,59.3,56.7,30.13,West,273,0.0,1.0,91,0.00,SCT,,0.00,WeatherDisplay:10.37,2013-07-30 09:40:00,
2013-07-30 05:50:00,59.3,56.7,30.13,West,273,1.0,2.0,91,0.00,SCT,,0.00,WeatherDisplay:10.37,2013-07-30 09:50:00,
2013-07-30 06:00:00,59.3,56.7,30.13,West,273,0.0,2.0,91,0.00,SCT,,0.00,WeatherDisplay:10.37,2013-07-30 10:00:00,
2013-07-30 06:10:00,59.4,56.8,30.14,West,273,0.0,1.0,91,0.00,SCT,,0.00,WeatherDisplay:10.37,2013-07-30 10:10:00,
2013-07-30 06:20:00,59.6,57.0,30.14,West,273,0.0,2.0,91,0.00,SCT,,0.00,WeatherDisplay:10.37,2013-07-30 10:20:00,
2013-07-30 06:30:00,59.8,57.2,30.14,West,273,0.0,1.0,91,0.00,SCT,,0.00,WeatherDisplay:10.37,2013-07-30 10:30:00,
2013-07-30 06:40:00,60.0,57.4,30.14,West,273,0.0,1.0,91,0.00,BKN,,0.00,WeatherDisplay:10.37,2013-07-30 10:40:00,
2013-07-30 06:50:00,60.3,57.7,30.14,West,273,0.0,2.0,91,0.00,BKN,,0.00,WeatherDisplay:10.37,2013-07-30 10:50:00,
2013-07-30 07:00:00,60.6,57.7,30.14,West,273,0.0,1.0,90,0.00,BKN,,0.00,WeatherDisplay:10.37,2013-07-30 11:00:00,
2013-07-30 07:10:00,60.8,57.8,30.15,West,273,1.0,3.0,90,0.00,BKN,,0.00,WeatherDisplay:10.37,2013-07-30 11:10:00,
2013-07-30 07:20:00,60.9,57.6,30.15,West,273,0.0,2.0,89,0.00,BKN,,0.00,WeatherDisplay:10.37,2013-07-30 11:20:00,
2013-07-30 07:30:00,61.1,57.8,30.16,West,273,0.0,2.0,89,0.00,BKN,,0.00,WeatherDisplay:10.37,2013-07-30 11:30:00,
2013-07-30 07:40:00,61.2,57.9,30.16,West,273,0.0,2.0,89,0.00,BKN,,0.00,WeatherDisplay:10.37,2013-07-30 11:40:00,
2013-07-30 07:50:00,61.4,58.1,30.16,West,273,1.0,3.0,89,0.00,BKN,,0.00,WeatherDisplay:10.37,2013-07-30 11:50:00,
2013-07-30 08:00:00,61.7,58.1,30.16,West,273,1.0,3.0,88,0.00,BKN,,0.00,WeatherDisplay:10.37,2013-07-30 12:00:00,
2013-07-30 08:10:00,62.1,58.5,30.17,West,273,2.0,3.0,88,0.00,BKN,,0.00,WeatherDisplay:10.37,2013-07-30 12:10:00,
2013-07-30 08:20:00,62.5,58.6,30.17,West,273,1.0,3.0,87,0.00,BKN,,0.00,WeatherDisplay:10.37,2013-07-30 12:20:00,
2013-07-30 08:30:00,62.7,58.5,30.17,West,273,1.0,3.0,86,0.00,BKN,,0.00,WeatherDisplay:10.37,2013-07-30 12:30:00,
2013-07-30 08:40:00,62.9,58.6,30.17,West,273,0.0,3.0,86,0.00,BKN,,0.00,WeatherDisplay:10.37,2013-07-30 12:40:00,
2013-07-30 08:50:00,63.0,58.7,30.17,West,273,2.0,3.0,86,0.00,BKN,,0.00,WeatherDisplay:10.37,2013-07-30 12:50:00,
2013-07-30 09:00:00,63.2,59.0,30.17,West,273,1.0,4.0,86,0.00,BKN,,0.00,WeatherDisplay:10.37,2013-07-30 13:00:00,
2013-07-30 09:10:00,63.8,59.5,30.17,West,273,1.0,3.0,86,0.00,BKN,,0.00,WeatherDisplay:10.37,2013-07-30 13:10:00,
2013-07-30 09:20:00,64.5,59.6,30.17,West,273,2.0,4.0,84,0.00,BKN,,0.00,WeatherDisplay:10.37,2013-07-30 13:20:00,
2013-07-30 09:30:00,65.2,59.6,30.17,West,273,2.0,3.0,82,0.00,BKN,,0.00,WeatherDisplay:10.37,2013-07-30 13:30:00,
2013-07-30 09:40:00,65.8,59.8,30.17,West,273,0.0,3.0,81,0.00,BKN,,0.00,WeatherDisplay:10.37,2013-07-30 13:40:00,
2013-07-30 09:50:00,66.3,59.9,30.17,West,273,2.0,4.0,80,0.00,BKN,,0.00,WeatherDisplay:10.37,2013-07-30 13:50:00,
2013-07-30 10:00:00,67.0,59.9,30.17,West,273,3.0,5.0,78,0.00,BKN,,0.00,WeatherDisplay:10.37,2013-07-30 14:00:00,
2013-07-30 10:10:00,67.2,59.4,30.17,West,273,3.0,6.0,76,0.00,BKN,,0.00,WeatherDisplay:10.37,2013-07-30 14:10:00,
2013-07-30 10:20:00,67.4,59.9,30.17,West,273,1.0,4.0,77,0.00,BKN,,0.00,WeatherDisplay:10.37,2013-07-30 14:20:00,
2013-07-30 10:30:00,67.6,59.7,30.17,West,273,1.0,4.0,76,0.00,BKN,,0.00,WeatherDisplay:10.37,2013-07-30 14:30:00,
2013-07-30 10:40:00,67.6,59.8,30.17,West,273,1.0,4.0,76,0.00,BKN,,0.00,WeatherDisplay:10.37,2013-07-30 14:40:00,
2013-07-30 10:50:00,67.8,60.3,30.17,West,273,1.0,3.0,77,0.00,BKN,,0.00,WeatherDisplay:10.37,2013-07-30 14:50:00,
2013-07-30 11:00:00,68.3,60.4,30.17,West,273,1.0,4.0,76,0.00,BKN,,0.00,WeatherDisplay:10.37,2013-07-30 15:00:00,
2013-07-30 11:10:00,68.5,60.6,30.17,West,273,0.0,3.0,76,0.00,BKN,,0.00,WeatherDisplay:10.37,2013-07-30 15:10:00,
2013-07-30 11:20:00,68.6,60.0,30.17,West,273,2.0,5.0,74,0.00,BKN,,0.00,WeatherDisplay:10.37,2013-07-30 15:20:00,
2013-07-30 11:30:00,68.8,60.5,30.16,West,273,2.0,5.0,75,0.00,BKN,,0.00,WeatherDisplay:10.37,2013-07-30 15:30:00,
2013-07-30 11:40:00,69.3,60.2,30.17,West,273,3.0,6.0,73,0.00,OVC,,0.00,WeatherDisplay:10.37,2013-07-30 15:40:00,
2013-07-30 11:50:00,69.2,60.2,30.17,West,273,2.0,5.0,73,0.00,OVC,,0.00,WeatherDisplay:10.37,2013-07-30 15:50:00,
2013-07-30 12:00:00,69.3,60.7,30.17,West,273,2.0,5.0,74,0.00,OVC,,0.00,WeatherDisplay:10.37,2013-07-30 16:00:00,
2013-07-30 12:10:00,69.4,60.7,30.17,West,273,0.0,3.0,74,0.00,OVC,,0.00,WeatherDisplay:10.37,2013-07-30 16:10:00,
2013-07-30 12:20:00,69.6,60.9,30.16,West,273,1.0,3.0,74,0.00,OVC,,0.00,WeatherDisplay:10.37,2013-07-30 16:20:00,
2013-07-30 12:30:00,69.8,60.8,30.16,West,273,1.0,4.0,73,0.00,OVC,,0.00,WeatherDisplay:10.37,2013-07-30 16:30:00,
2013-07-30 12:40:00,70.5,60.2,30.15,West,273,1.0,5.0,70,0.00,OVC,,0.00,WeatherDisplay:10.37,2013-07-30 16:40:00,
2013-07-30 12:50:00,71.2,61.3,30.15,West,273,1.0,3.0,71,0.00,OVC,,0.00,WeatherDisplay:10.37,2013-07-30 16:50:00,
2013-07-30 13:00:00,71.5,60.4,30.15,West,273,2.0,5.0,68,0.00,OVC,,0.00,WeatherDisplay:10.37,2013-07-30 17:00:00,
2013-07-30 13:10:00,71.9,60.3,30.15,West,273,2.0,4.0,67,0.00,OVC,,0.00,WeatherDisplay:10.37,2013-07-30 17:10:00,
2013-07-30 13:20:00,71.9,60.8,30.14,West,273,1.0,3.0,68,0.00,OVC,,0.00,WeatherDisplay:10.37,2013-07-30 17:20:00,
2013-07-30 13:30:00,72.4,60.4,30.14,West,273,0.0,3.0,66,0.00,OVC,,0.00,WeatherDisplay:10.37,2013-07-30 17:30:00,
2013-07-30 13:40:00,72.7,62.3,30.14,NW,315,1.0,4.0,70,0.00,OVC,,0.00,WeatherDisplay:10.37,2013-07-30 17:40:00,
2013-07-30 13:50:00,72.5,62.1,30.14,West,263,0.0,2.0,70,0.00,OVC,,0.00,WeatherDisplay:10.37,2013-07-30 17:50:00,
2013-07-30 14:00:00,72.7,61.5,30.13,West,270,1.0,4.0,68,0.00,OVC,,0.00,WeatherDisplay:10.37,2013-07-30 18:00:00,
2013-07-30 14:10:00,73.1,61.9,30.14,NW,321,0.0,4.0,68,0.00,BKN,,0.00,WeatherDisplay:10.37,2013-07-30 18:10:00,
2013-07-30 14:20:00,73.0,61.8,30.14,NE,48,1.0,4.0,68,0.00,BKN,,0.00,WeatherDisplay:10.37,2013-07-30 18:20:00,
2013-07-30 14:30:00,72.9,61.7,30.14,NE,42,0.0,3.0,68,0.00,BKN,,0.00,WeatherDisplay:10.37,2013-07-30 18:30:00,
2013-07-30 14:40:00,72.8,61.2,30.13,NE,52,1.0,6.0,67,0.00,BKN,,0.00,WeatherDisplay:10.37,2013-07-30 18:40:00,
2013-07-30 14:50:00,73.2,61.5,30.13,WNW,292,0.0,3.0,67,0.00,BKN,,0.00,WeatherDisplay:10.37,2013-07-30 18:50:00,
2013-07-30 15:00:00,73.8,61.7,30.13,West,280,0.0,2.0,66,0.00,BKN,,0.00,WeatherDisplay:10.37,2013-07-30 19:00:00,
2013-07-30 15:10:00,74.0,61.5,30.12,NW,304,1.0,5.0,65,0.00,BKN,,0.00,WeatherDisplay:10.37,2013-07-30 19:10:00,
2013-07-30 15:20:00,74.3,62.2,30.12,WNW,296,0.0,4.0,66,0.00,BKN,,0.00,WeatherDisplay:10.37,2013-07-30 19:20:00,
2013-07-30 15:30:00,74.1,61.6,30.12,WNW,288,0.0,5.0,65,0.00,BKN,,0.00,WeatherDisplay:10.37,2013-07-30 19:30:00,
2013-07-30 15:40:00,73.8,61.7,30.12,NE,47,0.0,2.0,66,0.00,BKN,,0.00,WeatherDisplay:10.37,2013-07-30 19:40:00,
2013-07-30 15:50:00,74.0,61.9,30.12,WNW,290,2.0,4.0,66,0.00,BKN,,0.00,WeatherDisplay:10.37,2013-07-30 19:50:00,
2013-07-30 16:00:00,74.6,62.5,30.11,West,268,2.0,4.0,66,0.00,BKN,,0.00,WeatherDisplay:10.37,2013-07-30 20:00:00,
2013-07-30 16:10:00,75.1,62.6,30.11,West,270,1.0,4.0,65,0.00,BKN,,0.00,WeatherDisplay:10.37,2013-07-30 20:10:00,
2013-07-30 16:20:00,75.3,62.3,30.11,West,270,2.0,5.0,64,0.00,BKN,,0.00,WeatherDisplay:10.37,2013-07-30 20:20:00,
2013-07-30 16:30:00,75.5,62.0,30.12,West,271,3.0,5.0,63,0.00,BKN,,0.00,WeatherDisplay:10.37,2013-07-30 20:30:00,
2013-07-30 16:40:00,75.5,61.5,30.12,West,276,2.0,5.0,62,0.00,BKN,,0.00,WeatherDisplay:10.37,2013-07-30 20:40:00,
2013-07-30 16:50:00,75.6,61.2,30.12,West,277,3.0,5.0,61,0.00,BKN,,0.00,WeatherDisplay:10.37,2013-07-30 20:50:00,
2013-07-30 17:00:00,75.5,60.7,30.12,West,276,5.0,6.0,60,0.00,BKN,,0.00,WeatherDisplay:10.37,2013-07-30 21:00:00,
2013-07-30 17:10:00,75.7,60.4,30.11,West,273,3.0,7.0,59,0.00,SCT,,0.00,WeatherDisplay:10.37,2013-07-30 21:10:00,
2013-07-30 17:20:00,76.0,60.6,30.11,West,272,3.0,4.0,59,0.00,SCT,,0.00,WeatherDisplay:10.37,2013-07-30 21:20:00,
2013-07-30 17:30:00,76.0,60.2,30.11,West,273,3.0,6.0,58,0.00,SCT,,0.00,WeatherDisplay:10.37,2013-07-30 21:30:00,
2013-07-30 17:40:00,76.2,59.9,30.11,West,273,3.0,5.0,57,0.00,SCT,,0.00,WeatherDisplay:10.37,2013-07-30 21:40:00,
2013-07-30 17:50:00,76.2,60.8,30.11,West,273,3.0,5.0,59,0.00,SCT,,0.00,WeatherDisplay:10.37,2013-07-30 21:50:00,
2013-07-30 18:00:00,76.0,60.2,30.11,West,273,1.0,5.0,58,0.00,SCT,,0.00,WeatherDisplay:10.37,2013-07-30 22:00:00,
2013-07-30 18:10:00,75.9,60.5,30.11,West,273,3.0,4.0,59,0.00,SCT,,0.00,WeatherDisplay:10.37,2013-07-30 22:10:00,
2013-07-30 18:20:00,75.9,60.1,30.11,West,273,2.0,4.0,58,0.00,SCT,,0.00,WeatherDisplay:10.37,2013-07-30 22:20:00,
2013-07-30 18:30:00,75.3,60.0,30.11,West,273,1.0,3.0,59,0.00,SCT,,0.00,WeatherDisplay:10.37,2013-07-30 22:30:00,
2013-07-30 18:40:00,75.3,60.5,30.11,West,273,2.0,4.0,60,0.00,SCT,,0.00,WeatherDisplay:10.37,2013-07-30 22:40:00,
2013-07-30 18:50:00,75.1,59.3,30.12,West,272,3.0,4.0,58,0.00,SCT,,0.00,WeatherDisplay:10.37,2013-07-30 22:50:00,
2013-07-30 19:00:00,74.7,59.0,30.12,West,273,2.0,5.0,58,0.00,SCT,,0.00,WeatherDisplay:10.37,2013-07-30 23:00:00,
2013-07-30 19:10:00,73.9,59.6,30.12,West,273,2.0,4.0,61,0.00,BKN,,0.00,WeatherDisplay:10.37,2013-07-30 23:10:00,
2013-07-30 19:20:00,73.7,59.9,30.11,West,273,1.0,3.0,62,0.00,BKN,,0.00,WeatherDisplay:10.37,2013-07-30 23:20:00,
2013-07-30 19:30:00,73.6,59.8,30.11,West,273,1.0,2.0,62,0.00,BKN,,0.00,WeatherDisplay:10.37,2013-07-30 23:30:00,
2013-07-30 19:40:00,73.4,59.6,30.11,West,273,1.0,3.0,62,0.00,BKN,,0.00,WeatherDisplay:10.37,2013-07-30 23:40:00,
2013-07-30 19:50:00,73.1,59.3,30.11,West,273,1.0,2.0,62,0.00,BKN,,0.00,WeatherDisplay:10.37,2013-07-30 23:50:00,
2013-07-30 20:00:00,72.8,59.5,30.11,West,273,0.0,1.0,63,0.00,BKN,,0.00,WeatherDisplay:10.37,2013-07-31 00:00:00,
2013-07-30 20:10:00,72.4,59.5,30.11,West,273,0.0,1.0,64,0.00,BKN,,0.00,WeatherDisplay:10.37,2013-07-31 00:10:00,
2013-07-30 20:20:00,71.9,59.5,30.11,West,273,1.0,2.0,65,0.00,BKN,,0.00,WeatherDisplay:10.37,2013-07-31 00:20:00,
2013-07-30 20:30:00,71.5,59.5,30.11,West,273,0.0,2.0,66,0.00,BKN,,0.00,WeatherDisplay:10.37,2013-07-31 00:30:00,
2013-07-30 20:40:00,71.0,59.5,30.11,West,273,0.0,2.0,67,0.00,BKN,,0.00,WeatherDisplay:10.37,2013-07-31 00:40:00,
2013-07-30 20:50:00,70.7,59.6,30.11,West,273,0.0,0.0,68,0.00,BKN,,0.00,WeatherDisplay:10.37,2013-07-31 00:50:00,
2013-07-30 21:00:00,70.3,60.1,30.11,West,273,0.0,0.0,70,0.00,BKN,,0.00,WeatherDisplay:10.37,2013-07-31 01:00:00,
2013-07-30 21:10:00,69.8,60.0,30.11,West,273,0.0,0.0,71,0.00,SCT,,0.00,WeatherDisplay:10.37,2013-07-31 01:10:00,
2013-07-30 21:20:00,69.3,59.9,30.11,West,273,0.0,0.0,72,0.00,SCT,,0.00,WeatherDisplay:10.37,2013-07-31 01:20:00,
2013-07-30 21:30:00,68.9,60.3,30.11,West,273,0.0,0.0,74,0.00,SCT,,0.00,WeatherDisplay:10.37,2013-07-31 01:30:00,
2013-07-30 21:40:00,68.5,59.9,30.12,West,273,0.0,0.0,74,0.00,SCT,,0.00,WeatherDisplay:10.37,2013-07-31 01:40:00,
2013-07-30 21:50:00,68.0,59.8,30.12,West,273,0.0,0.0,75,0.00,SCT,,0.00,WeatherDisplay:10.37,2013-07-31 01:50:00,
2013-07-30 22:00:00,67.6,60.1,30.12,West,273,0.0,0.0,77,0.00,SCT,,0.00,WeatherDisplay:10.37,2013-07-31 02:00:00,
2013-07-30 22:10:00,66.8,59.8,30.12,West,273,0.0,1.0,78,0.00,SCT,,0.00,WeatherDisplay:10.37,2013-07-31 02:10:00,
2013-07-30 22:20:00,66.5,59.4,30.12,West,273,0.0,1.0,78,0.00,SCT,,0.00,WeatherDisplay:10.37,2013-07-31 02:20:00,
2013-07-30 22:30:00,66.6,59.5,30.12,West,273,0.0,1.0,78,0.00,SCT,,0.00,WeatherDisplay:10.37,2013-07-31 02:30:00,
2013-07-30 22:40:00,66.8,59.4,30.13,West,273,0.0,1.0,77,0.00,SCT,,0.00,WeatherDisplay:10.37,2013-07-31 02:40:00,
2013-07-30 22:50:00,66.8,59.7,30.13,West,273,0.0,1.0,78,0.00,SCT,,0.00,WeatherDisplay:10.37,2013-07-31 02:50:00,
2013-07-30 23:00:00,66.8,60.1,30.12,West,273,0.0,1.0,79,0.00,SCT,,0.00,WeatherDisplay:10.37,2013-07-31 03:00:00,
2013-07-30 23:10:00,66.7,60.0,30.13,West,273,1.0,2.0,79,0.00,SCT,,0.00,WeatherDisplay:10.37,2013-07-31 03:10:00,
2013-07-30 23:20:00,66.5,60.1,30.13,West,273,0.0,2.0,80,0.00,SCT,,0.00,WeatherDisplay:10.37,2013-07-31 03:20:00,
2013-07-30 23:30:00,66.3,60.3,30.13,West,273,1.0,2.0,81,0.00,SCT,,0.00,WeatherDisplay:10.37,2013-07-31 03:30:00,
2013-07-30 23:40:00,66.3,60.3,30.12,West,273,0.0,1.0,81,0.00,SCT,,0.00,WeatherDisplay:10.37,2013-07-31 03:40:00,
2013-07-30 23:50:00,66.1,60.1,30.13,West,273,0.0,1.0,81,0.00,SCT,,0.00,WeatherDisplay:10.37,2013-07-31 03:50:00,